Home   Weather   Naumburg (Saale)   Past weeks

Flag for Germany Past Weather in Naumburg (Saale), Saxony-Anhalt, Germany — Yesterday and Last 2 Weeks

Now
41 °F

Passing clouds.


Feels Like: 32 °F
Forecast: 38 / 47 °F
Wind: 17 mph from Southwest

Location: Leipzig-Schkeuditz

Current Time: Dec 9, 2016 at 6:58:43 am

Latest Report: Dec 9, 2016 at 6:20 am


Visibility: N/A

Pressure: 30.27 "Hg

Humidity: 87%

Dew Point: 37 °F

Location of Naumburg (Saale)Location

Past Weather in Naumburg (Saale) — Graph

°F

Naumburg (Saale) Temperature Yesterday

Maximum temperature yesterday: 46 °F (at 12:20 pm)
Minimum temperature yesterday: 36 °F (at 2:50 am)
Average temperature yesterday: 41 °F

High & Low Weather Summary for the Past Weeks

 TemperatureHumidityPressure
High46 °F (Nov 24, 1:20 pm)100% (Nov 24, 5:20 am)30.57 "Hg (Nov 24, 5:20 am)
Low19 °F (Dec 5, 2:50 am)53% (Dec 8, 1:50 pm)29.89 "Hg (Dec 2, 12:50 am)
Average33 °F87%30.28 "Hg
* Reported Nov 24 5:20 am — Dec 9 5:50 am, Naumburg (Saale), Weather by CustomWeather, © 2016

Note: Actual official high and low records may vary slightly from our data, if they occured in-between our weather recording intervals... More about our weather records

Advertising

Naumburg (Saale) Weather History for the Previous 24 Hours

Scroll right to see more
 ConditionsComfort  
Time TempWeatherWind HumidityBarometerVisibility
5:50 am
Fri, Dec 9
41 °FPassing clouds.10 mph81%30.27 "HgN/A
5:20 am41 °FPassing clouds.10 mph76%30.27 "HgN/A
4:50 am41 °FPassing clouds.12 mph76%30.27 "HgN/A
4:20 am41 °FPassing clouds.12 mph76%30.30 "HgN/A
3:50 am41 °FPassing clouds.12 mph76%30.30 "HgN/A
3:20 am39 °FPassing clouds.10 mph81%30.30 "HgN/A
2:50 am39 °FLight rain. Passing clouds.12 mph81%30.30 "HgN/A
2:20 am39 °FLight rain. Partly cloudy.14 mph75%30.30 "HgN/A
1:50 am39 °FClear.14 mph75%30.30 "Hg10 mi
1:20 am39 °FClear.15 mph75%30.30 "Hg10 mi
12:50 am37 °FClear.15 mph75%30.27 "Hg10 mi
12:20 am36 °FClear.14 mph81%30.27 "Hg10 mi
11:50 pm
Thu, Dec 8
37 °FClear.13 mph75%30.27 "Hg10 mi
11:20 pm39 °FClear.14 mph75%30.30 "Hg10 mi
10:50 pm39 °FClear.12 mph70%30.30 "Hg10 mi
10:20 pm39 °FClear.16 mph70%30.30 "Hg10 mi
9:50 pm41 °FClear.15 mph66%30.30 "Hg10 mi
9:20 pm41 °FClear.17 mph66%30.30 "Hg10 mi
8:50 pm41 °FClear.14 mph70%30.30 "Hg10 mi
8:20 pm41 °FClear.14 mph70%30.30 "Hg10 mi
7:50 pm41 °FClear.14 mph70%30.33 "Hg10 mi
7:20 pm41 °FClear.14 mph70%30.33 "Hg10 mi
6:50 pm41 °FClear.14 mph70%30.33 "Hg10 mi
6:20 pm43 °FClear.15 mph66%30.30 "Hg10 mi
5:50 pm43 °FClear.8 mph61%30.30 "Hg10 mi
5:20 pm43 °FClear.12 mph61%30.33 "Hg10 mi
4:50 pm43 °FClear.15 mph61%30.33 "Hg10 mi
4:20 pm43 °FClear.17 mph61%30.33 "Hg10 mi
3:50 pm45 °FSunny.20 mph53%30.33 "Hg10 mi
3:20 pm45 °FSunny.20 mph53%30.33 "Hg10 mi
2:50 pm45 °FSunny.22 mph57%30.33 "Hg10 mi
2:20 pm46 °FSunny.22 mph53%30.33 "Hg10 mi
1:50 pm46 °FSunny.22 mph53%30.33 "Hg10 mi
1:20 pm46 °FSunny.20 mph57%30.33 "Hg10 mi
12:50 pm46 °FSunny.21 mph57%30.33 "Hg10 mi
12:20 pm46 °FSunny.15 mph57%30.36 "Hg10 mi
11:50 am45 °FSunny.17 mph61%30.36 "Hg10 mi
11:20 am45 °FSunny.18 mph61%30.36 "Hg10 mi
10:50 am45 °FSunny.18 mph66%30.36 "Hg10 mi
10:20 am43 °FSunny.18 mph71%30.36 "Hg10 mi
9:50 am39 °FSunny.15 mph75%30.39 "Hg10 mi
9:20 am39 °FSunny.15 mph75%30.39 "Hg10 mi
8:50 am39 °FSunny.14 mph75%30.39 "Hg10 mi
8:20 am39 °FSunny.16 mph75%30.39 "Hg10 mi
7:50 am39 °FClear.20 mph75%30.36 "Hg10 mi
7:20 am39 °FClear.18 mph75%30.36 "Hg10 mi
6:50 am37 °FClear.18 mph81%30.36 "Hg10 mi
6:20 am37 °FClear.18 mph81%30.36 "Hg10 mi
Weather by CustomWeather, © 2016

See weather overviewHow to use our weather pages